Location: Góry Miechowskie
(50.3599°N, 20.1803°E)
Time: 22:21:01
(UTC+00:00)

S-56A Canister/Altair - Pass Details

Date: 18 September 2024
Orbit: 636 x 2487 km, 38.9° (Epoch: 09 October)

Event Time Altitude Azimuth Distance (km) Brightness Sun altitude
Rises 19:53:09 0° 260° (W) 3,586 11.5 -28.0°
Reaches altitude 10° 19:55:42 10° 250° (WSW) 2,845 10.7 -28.3°
Enters shadow 20:00:48 30° 202° (SSW) 2,118 9.5 -28.9°
Maximum altitude 20:01:42 31° 191° (S) 2,155 - -29.0°
Drops below altitude 10° 20:10:02 10° 135° (SE) 4,025 - -29.9°
Sets 20:14:25 0° 127° (SE) 5,332 - -30.3°
